NOAA NWS Hourly Roundups by Site

Regional Weather Roundup for State College, PA

To Select Another Site Choose from List

Select Site:  

000
ASUS41 KCTP 300710
RWRCTP

REGIONAL WEATHER ROUNDUP
NATIONAL WEATHER SERVICE STATE COLLEGE PA
200 AM EST MON JAN 30 2023

Note: "fair" indicates few or no clouds below 12,000 feet with no
significant weather and/or obstructions to visibility.

* = STATION THAT DOES NOT REPORT PRECIPITATION /E.G. RAIN...SNOW...ETC/
    THUNDER OR FOG.

PAZ002>004-007>009-013>016-020>023-029>032-300800-
WESTERN PENNSYLVANIA

CITY           SKY/WX    TMP DP  RH WIND       PRES   REMARKS
ERIE           CLOUDY    28  23  81 N10       30.21S
MEADVILLE      CLOUDY    28  25  88 N5        30.14F
FRANKLIN       CLOUDY    29  29 100 CALM      30.14F
NEW CASTLE     CLOUDY    30  29  96 NW6       30.18R
BEAVER COUNTY  CLOUDY    33  31  92 NE5       30.16R FOG
BUTLER         CLOUDY    34  32  93 N6        30.16R FOG
PITTSBURGH INT DRIZZLE   34  33  96 N5        30.15R FOG
PITTSBURGH     CLOUDY    37  36  96 N5        30.14R FOG
INDIANA*       CLOUDY    37  37 100 N5        30.18R FOG
LATROBE        DRIZZLE   39  39 100 N6        30.15R
WASHINGTON CO* NOT AVBL
$$

PAZ004>006-010>012-017>019-024>028-033>037-041-042-045-046-049>053-300800-
CENTRAL PENNSYLVANIA

CITY           SKY/WX    TMP DP  RH WIND       PRES   REMARKS
BRADFORD       CLOUDY    31  28  89 NW6       30.09F FOG
ST MARYS       CLOUDY    34  32  93 CALM      30.13F
DUBOIS         CLOUDY    33  31  92 NW3       30.10F FOG
CLEARFIELD     CLOUDY    36  33  89 SW3       30.13R
JOHNSTOWN      CLOUDY    38  38 100 SW8       30.09S FOG
SOMERSET       NOT AVBL
ALTOONA        CLOUDY    41  38  89 SW9       30.13S
STATE COLLEGE  CLOUDY    39  39 100 NW6       30.14R
REEDSVILLE     CLOUDY    39  39 100 CALM      30.14R FOG
WELLSBORO      CLOUDY    36  34  93 W5        30.09S
WILLIAMSPORT   CLOUDY    39  36  89 NW3       30.13F
SELINSGROVE    CLOUDY    38  36  92 CALM      30.15F
FT INDIANTOWN  NOT AVBL
CAPITAL CITY   CLOUDY    39  34  82 SE5       30.15F
HARRISBURG     CLOUDY    41  36  82 S6        30.15F
YORK           CLOUDY    39  36  89 CALM      30.14F
$$

PAZ038>040-043-044-047-048-054-055-060>062-067>071-300800-
EASTERN PENNSYLVANIA

CITY           SKY/WX    TMP DP  RH WIND       PRES   REMARKS
TOWANDA        PTSUNNY   39  37  93 N10       30.16S
SCRANTON       CLOUDY    42  35  76 SW5       30.12S
MOUNT POCONO   MOCLDY    37  34  89 W7        30.09S
HAZLETON       PTSUNNY   41  36  81 CALM      30.14F
LEHIGHTON      CLOUDY    32  30  93 CALM      30.17S
ALLENTOWN      CLOUDY    39  32  76 W3        30.15S
QN CITY/ALNTWN NOT AVBL
QUAKERTOWN*    SUNNY     34  34 100 CALM      30.16S
PERKASIE*      CLOUDY    39  37  93 SW3       30.17S
DOYLESTOWN     CLOUDY    39  33  79 VRB5      30.16
READING        CLOUDY    41  35  79 S5        30.15F
LANCASTER      CLOUDY    38  35  89 NE3       30.16F
COATESVILLE    CLOUDY    36  36 100 W5        30.17S
WEST CHESTER   CLOUDY    37  36  93 MISG      30.18R
POTTSTOWN      NOT AVBL
BLUE BELL      CLOUDY    36  35  95 CALM      30.18S
NORTH PHILA    CLOUDY    37  33  85 CALM      30.19S
PHILADELPHIA   CLOUDY    41  38  89 SW5       30.19S
$$


 

View Past Reports for State College, PA.

Products Courtesy of NOAA-NWS
NWS Information Parsing Script by Ken True at Saratoga Weather - Script by SE Lincoln Weather.